SPIRALE A

Last updated on Nov. 21, 2019, 4:16 a.m. UTC

1 33751U 09008C   19323.85856173  .00000033  00000-0  12671-3 0  9993
2 33751   2.0797  47.7389 5390904 303.7647  15.9606  4.58720421151618
UTC
Height (km)
Latitude
Longitude
Inclination
Orbital Period
UTC large
Height (km)
Speed (km/s)
/
Latitude / Longitude
Inclination (degrees)
Orbital Period (minutes)
Azimuth
Elevation
Range (km)
Doppler Factor
iOS Compass Heading
iOS Angle

Next 30 passes for location: Hong Kong

Rise time Rise Azimuth (degrees) Set time Set Azimuth (degrees) Duration Max altitude (degrees)

No matching passes for this satellites